星链-31213 (STARLINK-31213 )

导读

STARLINK-31213是美国太空探索技术公司(SpaceX)于2024年1月29日发射的星链(Starlink)低轨互联网卫星,是星链全球卫星互联网星座的组成部分。星链项目旨在为全球偏远、网络基础设施匮乏的区域提供高速、低延迟的宽带互联网服务,单颗卫星通过组网协同,支撑全球覆盖的卫星互联网接入能力,推进全球互联网络覆盖。

Basic Information
目录编号:
58860
目录名称:
STARLINK-31213
国际标识:
2024-019H
轨道中心:
EARTH
卫星名称:
星链-31213
卫星全名:
星链-31213 (STARLINK-31213 )
卫星状态:
在轨 (已飞行949 天)
发射日期:
2024-01-29 UTC
国别 :
美国 (US)
星等 :
--
Orbit Information
数据来源 国际轨道数据 AOE轨道数据
星历时间 2026-09-04T14:20:38+0800
13小时前
查看轨道信息
2026-09-02T09:00:00+0800
2天前
查看轨道信息
半长轴 6861.191km 6861.16km
偏心率 0.0001213 0.0002154
轨道倾角 43.004° 43.008°
近地点辐角 263.619° 297.246°
升交点赤经 320.378° 332.935°
平近点角 96.452° 65.438°
近地点 482.221km 481.545km
远地点 483.887km 484.501km
周期 94.267分钟 94.266分钟
每日圈数 15.275784 15.27589
Detailed Information
固有亮度:
5
最大亮度:
0.3
卫星平台:
Starlink v2.0 mini
覆盖范围:
全球
运营商:
太空探索技术公司
运营商所在国:
美国
制造商(研发单位):
太空探索技术公司
制造商所在国:
美国
使用方式:
暂无
Satellite Introduction
星链(Starlink)计划是由太空探索技术公司(SpaceX)提出的一个巨型低轨卫星互联网星座项目,计划在2019年至2024年间在太空搭建由约1.2万颗卫星组成的“星链”网络,其中1584颗将部署在地球上空550千米处的近地轨道,并从2020年开始工作。该卫星仍在工作。
2D Orbit Map
3D Orbit Map
Orbit Altitude Analysis Chart
Orbit Inclination Analysis Chart
Orbit Comprehensive Analysis Chart
View Comprehensive Chart
Conjunction Data List
Event ID Objects TCA Miss Dist (km) Collision Risk Probability Collision Risk Index (CRI) Action
CDM_260907-061805-886006-657921
2026-09-07T
06:18:45+0000
0.562 km
远距离
1.045113E-4 高风险 0.75
CDM_260907-044405-886006-657921
2026-09-07T
04:44:36+0000
1.096 km
极远距离
1.262091E-5 中风险 0.57
CDM_260907-031005-886006-657921
2026-09-07T
03:10:26+0000
2.536 km
极远距离
1.181289E-6 低风险 0.36